Location: Civry
(47.2902°N, 4.6156°E)
Time: 05:54:27
(UTC+00:00)

STARLINK-1143 - Pass Details

Date: 09 April 2020
Orbit: 549 x 550 km, 53.0° (Epoch: 29 May)

Event Time Altitude Azimuth Distance (km) Brightness Sun altitude
Rises 20:04:05 0° 298° (WNW) 2,725 9.0 -16.6°
Reaches altitude 10° 20:06:19 10° 299° (WNW) 1,829 7.6 -16.9°
Maximum altitude 20:10:29 80° 25° (NNE) 564 3.6 -17.5°
Enters shadow 20:11:55 40° 109° (ESE) 823 4.0 -17.7°
